Location: *
(51.5000°N, 0.1100°W)
Time: 19:42:28
(UTC+00:00)

Cosmos 1455 - Pass Details

Date: 25 May 2024
Orbit: 445 x 460 km, 82.5° (Epoch: 16 June)

Event Time Altitude Azimuth Distance (km) Brightness Sun altitude
Rises 02:26:12 0° 331° (NNW) 2,462 6.0 -10.5°
Reaches altitude 10° 02:29:17 10° 300° (WNW) 1,586 4.6 -10.2°
Maximum altitude 02:30:43 12° 276° (W) 1,453 4.2 -10.1°
Enters shadow 02:32:09 10° 251° (WSW) 1,580 4.2 -10.0°
